| time (UTC) | temp F | wind direction | speed MPH | gust MPH | rain 1hr in | rain 24hr in | rain mn in | humidity % | barometer mb |
| 20260831104845 | 58 | 360 | 1.0 | 3.0 | 0.00 | 0.00 | 0.00 | 98 | 1020.2 |
| 20260831104832 | 56 | 35 | 0.0 | 0.0 | 0.00 | 0.00 | 0.00 | 87 | 1021.5 |
| 20260831103416 | 57 | 333 | 0.0 | 0.0 | 0.00 | 0.00 | 0.00 | 97 | 1020.1 |
| 20260831103342 | 57 | 35 | 0.0 | 0.0 | 0.00 | 0.00 | 0.00 | 87 | 1021.1 |
| 20260831101931 | 57 | 333 | 0.0 | 1.0 | 0.00 | 0.00 | 0.00 | 96 | 1020.1 |
| 20260831101828 | 57 | 333 | 0.0 | 1.0 | 0.00 | 0.00 | 0.00 | 96 | 1020.1 |
| 20260831101826 | 57 | 35 | 0.0 | 0.0 | 0.00 | 0.00 | 0.00 | 87 | 1021.3 |
| 20260831100419 | 57 | 333 | 0.0 | 1.0 | 0.00 | 0.00 | 0.00 | 96 | 1020.1 |
| 20260831100336 | 57 | 333 | 0.0 | 1.0 | 0.00 | 0.00 | 0.00 | 96 | 1020.1 |
| 20260831100329 | 58 | 35 | 0.0 | 0.0 | 0.00 | 0.00 | 0.00 | 87 | 1021.3 |
| 20260831094837 | 57 | 333 | 1.0 | 2.0 | 0.00 | 0.00 | 0.00 | 96 | 1020.0 |
| 20260831094833 | 58 | 35 | 0.0 | 0.0 | 0.00 | 0.00 | 0.00 | 87 | 1021.2 |
| 20260831093458 | 59 | 35 | 0.0 | 0.0 | 0.00 | 0.00 | 0.00 | 84 | 1021.0 |
| 20260831093315 | 57 | 333 | 2.0 | 2.0 | 0.00 | 0.00 | 0.00 | 96 | 1019.9 |
| 20260831091902 | 59 | 35 | 0.0 | 0.0 | 0.00 | 0.00 | 0.00 | 83 | 1020.9 |
| 20260831091815 | 58 | 333 | 1.0 | 2.0 | 0.00 | 0.00 | 0.00 | 96 | 1019.8 |
| 20260831090402 | 59 | 35 | 0.0 | 0.0 | 0.00 | 0.00 | 0.00 | 80 | 1020.8 |
| 20260831090313 | 58 | 333 | 0.0 | 2.0 | 0.00 | 0.00 | 0.00 | 96 | 1019.8 |
| 20260831084855 | 59 | 333 | 0.0 | 1.0 | 0.00 | 0.00 | 0.00 | 95 | 1019.6 |
| 20260831084853 | 60 | 35 | 0.0 | 0.0 | 0.00 | 0.00 | 0.00 | 79 | 1020.8 |
| 20260831083357 | 60 | 35 | 0.0 | 0.0 | 0.00 | 0.00 | 0.00 | 78 | 1020.8 |
| 20260831083329 | 59 | 333 | 2.0 | 2.0 | 0.00 | 0.00 | 0.00 | 95 | 1019.5 |
| 20260831081915 | 59 | 333 | 0.0 | 1.0 | 0.00 | 0.00 | 0.00 | 95 | 1019.4 |
| 20260831081837 | 60 | 35 | 0.0 | 0.0 | 0.00 | 0.00 | 0.00 | 77 | 1020.6 |
| 20260831080339 | 61 | 35 | 0.0 | 0.0 | 0.00 | 0.00 | 0.00 | 74 | 1020.5 |
| 20260831080316 | 60 | 333 | 0.0 | 1.0 | 0.00 | 0.00 | 0.00 | 95 | 1019.3 |
| 20260831074841 | 61 | 35 | 2.0 | 2.0 | 0.00 | 0.00 | 0.00 | 75 | 1020.4 |
| 20260831074834 | 60 | 333 | 0.0 | 0.0 | 0.00 | 0.00 | 0.00 | 94 | 1019.2 |
| 20260831073441 | 61 | 35 | 0.0 | 0.0 | 0.00 | 0.00 | 0.00 | 73 | 1020.5 |
| 20260831073337 | 60 | 333 | 0.0 | 1.0 | 0.00 | 0.00 | 0.00 | 94 | 1019.2 |
| 20260831071834 | 60 | 333 | 1.0 | 2.0 | 0.00 | 0.00 | 0.00 | 93 | 1018.9 |
| 20260831071828 | 62 | 355 | 1.0 | 3.0 | 0.00 | 0.00 | 0.00 | 71 | 1020.4 |
| 20260831070422 | 61 | 333 | 1.0 | 2.0 | 0.00 | 0.00 | 0.00 | 93 | 1018.8 |
| 20260831070339 | 63 | 20 | 0.0 | 2.0 | 0.00 | 0.00 | 0.00 | 69 | 1020.2 |
| 20260831064826 | 64 | 311 | 1.0 | 4.0 | 0.00 | 0.00 | 0.00 | 68 | 1020.2 |
| 20260831064819 | 62 | 333 | 1.0 | 2.0 | 0.00 | 0.00 | 0.00 | 92 | 1018.8 |
| 20260831063405 | 62 | 333 | 1.0 | 2.0 | 0.00 | 0.00 | 0.00 | 92 | 1018.8 |
| 20260831063339 | 64 | 25 | 1.0 | 8.0 | 0.00 | 0.00 | 0.00 | 70 | 1020.2 |
| 20260831061842 | 63 | 67 | 0.0 | 0.0 | 0.00 | 0.00 | 0.00 | 70 | 1020.2 |
| 20260831061823 | 62 | 333 | 1.0 | 2.0 | 0.00 | 0.00 | 0.00 | 92 | 1018.9 |
| 20260831060404 | 64 | 67 | 0.0 | 2.0 | 0.00 | 0.00 | 0.00 | 68 | 1020.3 |
| 20260831060344 | 62 | 333 | 0.0 | 1.0 | 0.00 | 0.00 | 0.00 | 91 | 1018.9 |
| 20260831054844 | 65 | 355 | 0.0 | 2.0 | 0.00 | 0.00 | 0.00 | 67 | 1020.2 |
| 20260831054817 | 63 | 333 | 1.0 | 2.0 | 0.00 | 0.00 | 0.00 | 90 | 1018.7 |
| 20260831053418 | 66 | 334 | 1.0 | 4.0 | 0.00 | 0.00 | 0.00 | 66 | 1020.0 |
| 20260831053319 | 64 | 333 | 0.0 | 0.0 | 0.00 | 0.00 | 0.00 | 87 | 1018.6 |
| 20260831051903 | 66 | 336 | 4.0 | 8.0 | 0.00 | 0.00 | 0.00 | 66 | 1019.9 |
| 20260831051835 | 65 | 333 | 0.0 | 2.0 | 0.00 | 0.00 | 0.00 | 87 | 1018.6 |
| 20260831050351 | 65 | 351 | 1.0 | 6.0 | 0.00 | 0.00 | 0.00 | 67 | 1019.9 |
| 20260831050316 | 64 | 333 | 1.0 | 2.0 | 0.00 | 0.00 | 0.00 | 87 | 1018.5 |
| 20260831044943 | 66 | 307 | 1.0 | 8.0 | 0.00 | 0.00 | 0.00 | 66 | 1019.8 |
| 20260831044901 | 66 | 307 | 1.0 | 8.0 | 0.00 | 0.00 | 0.00 | 66 | 1019.8 |
| 20260831044852 | 64 | 314 | 1.0 | 2.0 | 0.00 | 0.00 | 0.00 | 88 | 1018.4 |
| 20260831043359 | 64 | 317 | 0.0 | 2.0 | 0.00 | 0.00 | 0.00 | 88 | 1018.2 |
| 20260831043330 | 66 | 25 | 0.0 | 4.0 | 0.00 | 0.00 | 0.00 | 66 | 1019.7 |
| 20260831041922 | 66 | 325 | 1.0 | 4.0 | 0.00 | 0.00 | 0.00 | 65 | 1019.5 |
| 20260831041847 | 64 | 310 | 0.0 | 0.0 | 0.00 | 0.00 | 0.00 | 88 | 1018.2 |
| 20260831040340 | 66 | 282 | 1.0 | 5.0 | 0.00 | 0.00 | 0.00 | 65 | 1019.5 |
| 20260831040312 | 64 | 310 | 0.0 | 2.0 | 0.00 | 0.00 | 0.00 | 87 | 1018.1 |
| 20260831034833 | 65 | 336 | 0.0 | 1.0 | 0.00 | 0.00 | 0.00 | 86 | 1018.1 |
| 20260831034825 | 67 | 326 | 2.0 | 6.0 | 0.00 | 0.00 | 0.00 | 65 | 1019.5 |
| 20260831033334 | 66 | 39 | 2.0 | 3.0 | 0.00 | 0.00 | 0.00 | 65 | 1019.7 |
| 20260831033317 | 65 | 298 | 0.0 | 2.0 | 0.00 | 0.00 | 0.00 | 87 | 1018.3 |
| 20260831031954 | 66 | 20 | 2.0 | 4.0 | 0.00 | 0.00 | 0.00 | 65 | 1019.6 |
| 20260831031813 | 65 | 325 | 0.0 | 0.0 | 0.00 | 0.00 | 0.00 | 86 | 1018.2 |
| 20260831030416 | 67 | 76 | 2.0 | 3.0 | 0.00 | 0.00 | 0.00 | 64 | 1019.6 |
| 20260831030339 | 65 | 325 | 0.0 | 2.0 | 0.00 | 0.00 | 0.00 | 86 | 1018.2 |
| 20260831024928 | 67 | 5 | 0.0 | 1.0 | 0.00 | 0.00 | 0.00 | 82 | 1018.3 |
| 20260831024911 | 67 | 39 | 1.0 | 5.0 | 0.00 | 0.00 | 0.00 | 64 | 1019.6 |
| 20260831023359 | 68 | 329 | 1.0 | 7.0 | 0.00 | 0.00 | 0.00 | 63 | 1019.5 |
| 20260831023334 | 69 | 5 | 0.0 | 1.0 | 0.00 | 0.00 | 0.00 | 80 | 1018.3 |
| 20260831021919 | 68 | 337 | 3.0 | 5.0 | 0.00 | 0.00 | 0.00 | 62 | 1019.4 |
| 20260831021859 | 69 | 325 | 1.0 | 3.0 | 0.00 | 0.00 | 0.00 | 79 | 1018.1 |
| 20260831020440 | 69 | 354 | 1.0 | 5.0 | 0.00 | 0.00 | 0.00 | 61 | 1019.5 |
| 20260831020406 | 69 | 262 | 2.0 | 4.0 | 0.00 | 0.00 | 0.00 | 78 | 1018.1 |
| 20260831014911 | 70 | 277 | 1.0 | 4.0 | 0.00 | 0.00 | 0.00 | 77 | 1018.1 |
| 20260831014841 | 69 | 324 | 2.0 | 7.0 | 0.00 | 0.00 | 0.00 | 61 | 1019.5 |
| 20260831013352 | 69 | 266 | 3.0 | 7.0 | 0.00 | 0.00 | 0.00 | 60 | 1019.4 |
| 20260831013337 | 70 | 22 | 0.0 | 3.0 | 0.00 | 0.00 | 0.00 | 76 | 1018.2 |
| 20260831011836 | 70 | 279 | 1.0 | 6.0 | 0.00 | 0.00 | 0.00 | 76 | 1017.7 |
| 20260831010349 | 70 | 30 | 1.0 | 6.0 | 0.00 | 0.00 | 0.00 | 58 | 1019.3 |
| 20260831010343 | 70 | 326 | 2.0 | 6.0 | 0.00 | 0.00 | 0.00 | 75 | 1017.7 |
| 20260831004853 | 70 | 355 | 2.0 | 6.0 | 0.00 | 0.00 | 0.00 | 58 | 1019.4 |
| 20260831004846 | 70 | 296 | 2.0 | 6.0 | 0.00 | 0.00 | 0.00 | 74 | 1017.7 |
| 20260831003402 | 71 | 337 | 2.0 | 6.0 | 0.00 | 0.00 | 0.00 | 56 | 1019.1 |
| 20260831003313 | 71 | 306 | 2.0 | 4.0 | 0.00 | 0.00 | 0.00 | 74 | 1017.5 |
| 20260831001853 | 72 | 327 | 1.0 | 3.0 | 0.00 | 0.00 | 0.00 | 74 | 1017.2 |
| 20260831001848 | 71 | 351 | 5.0 | 10.0 | 0.00 | 0.00 | 0.00 | 56 | 1018.7 |
| 20260831000407 | 72 | 309 | 3.0 | 5.0 | 0.00 | 0.00 | 0.00 | 74 | 1016.9 |
| 20260831000347 | 72 | 191 | 3.0 | 11.0 | 0.00 | 0.00 | 0.00 | 56 | 1018.5 |
| 20260831000325 | 72 | 309 | 3.0 | 5.0 | 0.00 | 0.00 | 0.00 | 74 | 1016.9 |
| 20260830234907 | 72 | 290 | 2.0 | 5.0 | 0.00 | 0.00 | 0.00 | 75 | 1016.5 |
| 20260830234835 | 72 | 317 | 2.0 | 9.0 | 0.00 | 0.00 | 0.00 | 58 | 1018.2 |
| 20260830233404 | 72 | 241 | 4.0 | 8.0 | 0.00 | 0.00 | 0.00 | 58 | 1018.1 |
| 20260830233336 | 72 | 334 | 1.0 | 3.0 | 0.00 | 0.00 | 0.00 | 77 | 1016.5 |
| 20260830231855 | 72 | 270 | 0.0 | 2.0 | 0.00 | 0.00 | 0.00 | 77 | 1016.4 |
| 20260830231831 | 72 | 341 | 0.0 | 2.0 | 0.00 | 0.00 | 0.00 | 60 | 1018.1 |
| 20260830230332 | 72 | 328 | 0.0 | 2.0 | 0.00 | 0.00 | 0.00 | 59 | 1018.1 |
| 20260830230320 | 73 | 301 | 1.0 | 4.0 | 0.00 | 0.00 | 0.00 | 75 | 1016.4 |
| 20260830224838 | 73 | 62 | 2.0 | 7.0 | 0.00 | 0.00 | 0.00 | 58 | 1018.3 |
| 20260830224817 | 73 | 245 | 1.0 | 4.0 | 0.00 | 0.00 | 0.00 | 74 | 1016.5 |
| 20260830223351 | 73 | 265 | 1.0 | 4.0 | 0.00 | 0.00 | 0.00 | 72 | 1016.5 |
| 20260830223343 | 73 | 188 | 2.0 | 8.0 | 0.00 | 0.00 | 0.00 | 57 | 1018.1 |
| 20260830221851 | 74 | 184 | 0.0 | 0.0 | 0.00 | 0.00 | 0.00 | 72 | 1016.6 |
| 20260830221846 | 74 | 209 | 1.0 | 5.0 | 0.00 | 0.00 | 0.00 | 55 | 1018.1 |
| 20260830220439 | 74 | 258 | 1.0 | 10.0 | 0.00 | 0.00 | 0.00 | 55 | 1018.2 |
| 20260830220418 | 75 | 250 | 0.0 | 0.0 | 0.00 | 0.00 | 0.00 | 70 | 1016.5 |
| 20260830214918 | 74 | 133 | 2.0 | 7.0 | 0.00 | 0.00 | 0.00 | 53 | 1018.1 |
| 20260830214837 | 75 | 146 | 1.0 | 4.0 | 0.00 | 0.00 | 0.00 | 72 | 1016.6 |
| 20260830213414 | 75 | 293 | 1.0 | 6.0 | 0.00 | 0.00 | 0.00 | 55 | 1018.1 |
| 20260830213323 | 76 | 119 | 1.0 | 3.0 | 0.00 | 0.00 | 0.00 | 71 | 1016.7 |
| 20260830211913 | 76 | 241 | 0.0 | 2.0 | 0.00 | 0.00 | 0.00 | 70 | 1016.7 |
| 20260830211854 | 76 | 203 | 1.0 | 7.0 | 0.00 | 0.00 | 0.00 | 53 | 1018.2 |
| 20260830210339 | 77 | 183 | 3.0 | 9.0 | 0.00 | 0.00 | 0.00 | 50 | 1018.2 |
| 20260830210335 | 77 | 246 | 1.0 | 4.0 | 0.00 | 0.00 | 0.00 | 68 | 1016.6 |
| 20260830204916 | 76 | 104 | 0.0 | 6.0 | 0.00 | 0.00 | 0.00 | 71 | 1016.8 |
| 20260830204854 | 78 | 336 | 4.0 | 9.0 | 0.00 | 0.00 | 0.00 | 52 | 1018.2 |
| 20260830203340 | 77 | 299 | 2.0 | 8.0 | 0.00 | 0.00 | 0.00 | 54 | 1018.3 |
| 20260830203334 | 76 | 153 | 1.0 | 10.0 | 0.00 | 0.00 | 0.00 | 70 | 1016.9 |
| 20260830201923 | 76 | 138 | 5.0 | 9.0 | 0.00 | 0.00 | 0.00 | 70 | 1016.8 |
| 20260830201825 | 76 | 253 | 3.0 | 8.0 | 0.00 | 0.00 | 0.00 | 58 | 1018.3 |
| 20260830200412 | 75 | 125 | 3.0 | 10.0 | 0.00 | 0.00 | 0.00 | 57 | 1018.3 |
| 20260830200324 | 76 | 172 | 3.0 | 8.0 | 0.00 | 0.00 | 0.00 | 71 | 1016.9 |
| 20260830194826 | 76 | 89 | 2.0 | 7.0 | 0.00 | 0.00 | 0.00 | 55 | 1018.6 |
| 20260830194822 | 77 | 104 | 4.0 | 8.0 | 0.00 | 0.00 | 0.00 | 70 | 1017.0 |
| 20260830193407 | 77 | 98 | 2.0 | 9.0 | 0.00 | 0.00 | 0.00 | 68 | 1017.3 |
| 20260830193336 | 77 | 116 | 1.0 | 7.0 | 0.00 | 0.00 | 0.00 | 50 | 1018.6 |
| 20260830191856 | 78 | 110 | 2.0 | 9.0 | 0.00 | 0.00 | 0.00 | 51 | 1018.6 |
| 20260830191821 | 78 | 34 | 2.0 | 5.0 | 0.00 | 0.00 | 0.00 | 65 | 1017.3 |
| 20260830190409 | 78 | 103 | 1.0 | 3.0 | 0.00 | 0.00 | 0.00 | 64 | 1017.7 |
| 20260830190406 | 77 | 137 | 2.0 | 7.0 | 0.00 | 0.00 | 0.00 | 48 | 1018.9 |
| 20260830184845 | 77 | 152 | 2.0 | 5.0 | 0.00 | 0.00 | 0.00 | 52 | 1019.2 |
| 20260830184820 | 77 | 279 | 0.0 | 2.0 | 0.00 | 0.00 | 0.00 | 65 | 1017.8 |
| 20260830183354 | 76 | 86 | 2.0 | 5.0 | 0.00 | 0.00 | 0.00 | 52 | 1019.3 |
| 20260830183347 | 77 | 109 | 2.0 | 8.0 | 0.00 | 0.00 | 0.00 | 67 | 1017.9 |
| 20260830181944 | 77 | 105 | 2.0 | 6.0 | 0.00 | 0.00 | 0.00 | 54 | 1019.4 |
| 20260830181902 | 77 | 105 | 2.0 | 6.0 | 0.00 | 0.00 | 0.00 | 54 | 1019.4 |
| 20260830181817 | 77 | 124 | 2.0 | 4.0 | 0.00 | 0.00 | 0.00 | 67 | 1018.0 |
| 20260830180425 | 77 | 132 | 2.0 | 3.0 | 0.00 | 0.00 | 0.00 | 64 | 1018.1 |
| 20260830180341 | 77 | 132 | 3.0 | 6.0 | 0.00 | 0.00 | 0.00 | 52 | 1019.6 |
| 20260830174906 | 77 | 102 | 1.0 | 4.0 | 0.00 | 0.00 | 0.00 | 50 | 1019.7 |
| 20260830174821 | 76 | 142 | 2.0 | 3.0 | 0.00 | 0.00 | 0.00 | 64 | 1018.3 |
| 20260830173448 | 77 | 186 | 1.0 | 3.0 | 0.00 | 0.00 | 0.00 | 51 | 1019.8 |
| 20260830173408 | 76 | 173 | 0.0 | 5.0 | 0.00 | 0.00 | 0.00 | 65 | 1018.5 |
| 20260830171857 | 75 | 142 | 1.0 | 7.0 | 0.00 | 0.00 | 0.00 | 66 | 1018.6 |
| 20260830171830 | 76 | 85 | 2.0 | 4.0 | 0.00 | 0.00 | 0.00 | 52 | 1019.9 |
| 20260830170330 | 76 | 220 | 1.0 | 3.0 | 0.00 | 0.00 | 0.00 | 50 | 1020.1 |
| 20260830170318 | 75 | 147 | 2.0 | 3.0 | 0.00 | 0.00 | 0.00 | 65 | 1018.7 |
| 20260830164854 | 76 | 203 | 1.0 | 2.0 | 0.00 | 0.00 | 0.00 | 51 | 1020.4 |
| 20260830164814 | 75 | 302 | 0.0 | 3.0 | 0.00 | 0.00 | 0.00 | 65 | 1019.1 |
| 20260830163341 | 76 | 153 | 1.0 | 3.0 | 0.00 | 0.00 | 0.00 | 50 | 1020.5 |
| 20260830161901 | 75 | 97 | 1.0 | 2.0 | 0.00 | 0.00 | 0.00 | 51 | 1020.7 |
| 20260830161837 | 75 | 263 | 2.0 | 3.0 | 0.00 | 0.00 | 0.00 | 63 | 1019.1 |
| 20260830160359 | 74 | 119 | 2.0 | 4.0 | 0.00 | 0.00 | 0.00 | 52 | 1020.7 |
| 20260830160340 | 74 | 125 | 1.0 | 3.0 | 0.00 | 0.00 | 0.00 | 68 | 1019.5 |
| 20260830154827 | 73 | 102 | 0.0 | 3.0 | 0.00 | 0.00 | 0.00 | 73 | 1019.7 |
| 20260830154825 | 73 | 124 | 0.0 | 2.0 | 0.00 | 0.00 | 0.00 | 57 | 1020.9 |
| 20260830153433 | 71 | 67 | 0.0 | 5.0 | 0.00 | 0.00 | 0.00 | 76 | 1019.9 |
| 20260830153418 | 72 | 157 | 1.0 | 4.0 | 0.00 | 0.00 | 0.00 | 60 | 1021.2 |
| 20260830151931 | 71 | 102 | 1.0 | 3.0 | 0.00 | 0.00 | 0.00 | 62 | 1021.2 |
| 20260830151908 | 71 | 138 | 3.0 | 5.0 | 0.00 | 0.00 | 0.00 | 76 | 1020.1 |
| 20260830151825 | 71 | 138 | 3.0 | 5.0 | 0.00 | 0.00 | 0.00 | 76 | 1020.1 |
| 20260830150344 | 70 | 139 | 0.0 | 2.0 | 0.00 | 0.00 | 0.00 | 64 | 1021.4 |
| 20260830150329 | 70 | 157 | 0.0 | 2.0 | 0.00 | 0.00 | 0.00 | 78 | 1020.3 |
| 20260830144827 | 70 | 139 | 0.0 | 2.0 | 0.00 | 0.00 | 0.00 | 64 | 1021.3 |
| 20260830144824 | 70 | 156 | 3.0 | 6.0 | 0.00 | 0.00 | 0.00 | 76 | 1020.2 |
| 20260830143430 | 70 | 141 | 4.0 | 5.0 | 0.00 | 0.00 | 0.00 | 74 | 1020.5 |
| 20260830143355 | 69 | 257 | 0.0 | 2.0 | 0.00 | 0.00 | 0.00 | 63 | 1021.7 |
| 20260830141914 | 70 | 155 | 3.0 | 6.0 | 0.00 | 0.00 | 0.00 | 74 | 1020.4 |
| 20260830141837 | 69 | 268 | 0.0 | 2.0 | 0.00 | 0.00 | 0.00 | 65 | 1021.6 |
| 20260830140352 | 69 | 130 | 1.0 | 5.0 | 0.00 | 0.00 | 0.00 | 77 | 1020.4 |
| 20260830140340 | 69 | 268 | 1.0 | 2.0 | 0.00 | 0.00 | 0.00 | 67 | 1021.7 |
| 20260830134826 | 68 | 104 | 1.0 | 3.0 | 0.00 | 0.00 | 0.00 | 64 | 1021.5 |
| 20260830133342 | 66 | 154 | 5.0 | 7.0 | 0.00 | 0.00 | 0.00 | 80 | 1020.4 |
| 20260830133330 | 67 | 196 | 1.0 | 3.0 | 0.00 | 0.00 | 0.00 | 65 | 1021.8 |
| 20260830131840 | 66 | 149 | 3.0 | 7.0 | 0.00 | 0.00 | 0.00 | 80 | 1020.5 |
| 20260830131827 | 64 | 220 | 0.0 | 2.0 | 0.00 | 0.00 | 0.00 | 70 | 1021.7 |
| 20260830130359 | 62 | 300 | 1.0 | 3.0 | 0.00 | 0.00 | 0.00 | 71 | 1022.0 |
| 20260830130324 | 66 | 123 | 2.0 | 3.0 | 0.00 | 0.00 | 0.00 | 80 | 1020.6 |
| 20260830124927 | 61 | 300 | 1.0 | 3.0 | 0.00 | 0.00 | 0.00 | 73 | 1022.2 |
| 20260830124835 | 65 | 142 | 3.0 | 5.0 | 0.00 | 0.00 | 0.00 | 82 | 1020.6 |
| 20260830123407 | 61 | 85 | 0.0 | 1.0 | 0.00 | 0.00 | 0.00 | 75 | 1022.1 |
| 20260830123319 | 65 | 142 | 3.0 | 5.0 | 0.00 | 0.00 | 0.00 | 81 | 1020.7 |
| 20260830121950 | 60 | 303 | 1.0 | 3.0 | 0.00 | 0.00 | 0.00 | 77 | 1022.5 |
| 20260830121820 | 64 | 155 | 5.0 | 7.0 | 0.00 | 0.00 | 0.00 | 80 | 1020.9 |
| 20260830120348 | 58 | 40 | 0.0 | 0.0 | 0.00 | 0.00 | 0.00 | 87 | 1022.4 |
| 20260830120337 | 63 | 123 | 2.0 | 5.0 | 0.00 | 0.00 | 0.00 | 83 | 1021.0 |
| 20260830114918 | 57 | 40 | 0.0 | 0.0 | 0.00 | 0.00 | 0.00 | 87 | 1022.3 |
| 20260830114905 | 61 | 132 | 2.0 | 5.0 | 0.00 | 0.00 | 0.00 | 88 | 1020.9 |
| 20260830113424 | 56 | 104 | 0.0 | 0.0 | 0.00 | 0.00 | 0.00 | 87 | 1022.3 |
| 20260830113346 | 57 | 162 | 1.0 | 5.0 | 0.00 | 0.00 | 0.00 | 95 | 1021.0 |
| 20260830111826 | 56 | 104 | 0.0 | 2.0 | 0.00 | 0.00 | 0.00 | 86 | 1022.5 |
| 20260830111823 | 56 | 315 | 1.0 | 2.0 | 0.00 | 0.00 | 0.00 | 94 | 1021.1 |
| 20260830110404 | 55 | 104 | 0.0 | 0.0 | 0.00 | 0.00 | 0.00 | 85 | 1022.5 |
| 20260830110351 | 56 | 315 | 0.0 | 2.0 | 0.00 | 0.00 | 0.00 | 94 | 1021.2 |